Back to catalog

COSMOS 1428

AliveMilitaryPO
NORAD 13757·PAYLOAD·🇷🇺 Russia

Launched Jan 12, 1983 from Plesetsk Cosmodrome

Loading…

Next Passes (next 24 hours)

TLE

FreshSource: Space-Track

Epoch: Sep 14, 2026, 03:36 UTC

1 13757U 83001A   26257.15005424  .00000060  00000-0  45316-4 0  9997
2 13757  82.9159 335.3232 0034434 356.3097  24.3904 13.77095210193944

Track COSMOS 1428 in real time with AllMySat

Download on the App Store